Location: Rounton
(54.4000°N, 1.3500°W)
Time: 04:11:55
(UTC+00:00)

S-56A Canister/Altair - Pass Details

Date: 01 December 2021
Orbit: 633 x 2499 km, 38.9° (Epoch: 17 January)

Event Time Altitude Azimuth Distance (km) Brightness Sun altitude
Rises 00:47:47 0° 214° (SW) 4,608 - -55.9°
Reaches altitude 10° 00:53:01 10° 192° (SSW) 3,183 - -55.6°
Maximum altitude 00:56:28 14° 165° (SSE) 2,628 - -55.4°
Drops below altitude 10° 00:59:26 10° 136° (SE) 2,652 - -55.2°
Sets 01:03:02 0° 110° (ESE) 3,323 - -54.9°
